Date,TemperatureHighF,TemperatureAvgF,TemperatureLowF,DewpointHighF,DewpointAvgF,DewpointLowF,HumidityHigh,HumidityAvg,HumidityLow,PressureMaxIn,PressureMinIn,WindSpeedMaxMPH,WindSpeedAvgMPH,GustSpeedMaxMPH,PrecipitationSumIn
2013-1-1,38.0,33.8,24.0,-99.9,-99.9,-99.9,0,0,100,30.05,29.87,0,-999,0,0.00
2013-1-2,31.0,23.9,19.0,-99.9,-99.9,-99.9,0,0,100,30.23,30.04,0,-999,0,0.00
2013-1-3,29.0,24.3,18.0,-99.9,-99.9,-99.9,0,0,100,30.24,30.12,0,-999,0,0.00
2013-1-4,35.0,31.5,22.0,-99.9,-99.9,-99.9,0,0,100,30.12,30.00,0,-999,0,0.00
2013-1-5,39.0,31.1,25.0,-99.9,-99.9,-99.9,0,0,100,30.33,30.06,0,-999,0,0.00
2013-1-6,44.0,35.3,28.0,-99.9,-99.9,-99.9,0,0,100,30.24,30.00,0,-999,0,0.00
2013-1-7,44.0,34.3,21.0,-99.9,-99.9,-99.9,0,0,100,30.42,30.08,0,-999,0,0.00
2013-1-8,45.0,29.2,19.0,-99.9,-99.9,-99.9,0,0,100,30.44,30.38,0,-999,0,0.00
2013-1-9,45.0,32.5,21.0,-99.9,-99.9,-99.9,0,0,100,30.42,30.18,0,-999,0,0.00
2013-1-10,47.0,36.9,29.0,-99.9,-99.9,-99.9,0,0,100,30.54,30.27,0,-999,0,0.00
2013-1-11,43.0,37.8,28.0,-99.9,-99.9,-99.9,0,0,100,30.53,30.10,0,-999,0,0.00
2013-1-12,45.0,41.9,39.0,-99.9,-99.9,-99.9,0,0,100,30.19,30.09,0,-999,0,0.00
2013-1-13,46.0,43.7,40.0,-99.9,-99.9,-99.9,0,0,100,30.16,30.01,0,-999,0,0.00
2013-1-14,53.0,47.3,36.0,-99.9,-99.9,-99.9,0,0,100,30.29,29.95,0,-999,0,0.00
2013-1-15,36.0,34.5,32.0,-99.9,-99.9,-99.9,0,0,100,30.36,30.21,0,-999,0,0.00
2013-1-16,34.0,31.5,31.0,-99.9,-99.9,-99.9,0,0,100,30.21,29.87,0,-999,0,0.00
2013-1-17,40.0,35.4,33.0,-99.9,-99.9,-99.9,0,0,100,30.11,29.96,0,-999,0,0.00
2013-1-18,33.0,26.8,23.0,-99.9,-99.9,-99.9,0,0,100,30.50,30.05,0,-999,0,0.00
2013-1-19,51.0,37.0,24.0,-99.9,-99.9,-99.9,0,0,100,30.43,29.95,0,-999,0,0.00
2013-1-20,52.0,39.7,26.0,-99.9,-99.9,-99.9,0,0,100,30.07,29.75,0,-999,0,0.00
2013-1-21,29.0,24.7,18.0,-99.9,-99.9,-99.9,0,0,100,30.12,29.90,0,-999,0,0.00
2013-1-22,22.0,15.3,9.0,-99.9,-99.9,-99.9,0,0,100,30.27,29.90,0,-999,0,0.00
2013-1-23,16.0,10.5,5.0,-99.9,-99.9,-99.9,0,0,100,30.31,30.24,0,-999,0,0.00
2013-1-24,22.0,13.8,6.0,-99.9,-99.9,-99.9,0,0,100,30.50,30.19,0,-999,0,0.00
2013-1-25,20.0,13.3,3.0,-99.9,-99.9,-99.9,0,0,100,30.51,30.11,0,-999,0,0.00
2013-1-26,25.0,15.3,3.0,-99.9,-99.9,-99.9,0,0,100,30.44,30.12,0,-999,0,0.00
2013-1-27,33.0,18.1,5.0,-99.9,-99.9,-99.9,0,0,100,30.60,30.44,0,-999,0,0.00
2013-1-28,32.0,27.6,14.0,-99.9,-99.9,-99.9,0,0,100,30.54,30.06,0,-999,0,0.00
2013-1-29,51.0,41.0,32.0,-99.9,-99.9,-99.9,0,0,100,30.13,30.04,0,-999,0,0.00
2013-1-30,64.0,50.3,40.0,-99.9,-99.9,-99.9,0,0,100,30.06,29.40,0,-999,0,0.00
2013-1-31,54.0,35.6,26.0,-99.9,-99.9,-99.9,0,0,100,29.84,29.34,0,-999,0,0.00